Regional Weather Roundup
Issued by NWS

Home | Current Version | Previous Version | Text Only | Print | Product List | Glossary On
Versions: 1 2 3 4 5 6 7 8 9 10 11 12 13 14 15 16 17 18 19 20 21 22 23 24 25 26 27 28 29 30 31 32 33 34 35 36 37 38 39 40 41 42 43 44 45 46 47 48 49 50
000
ASUS43 KLMK 241110
RWRKY
KENTUCKY REGIONAL WEATHER ROUNDUP
NATIONAL WEATHER SERVICE LOUISVILLE KY
600 AM EST FRI FEB 24 2017

NOTE "FAIR" INDICATES FEW OR NO CLOUDS BELOW 12,000 FEET
WITH NO SIGNIFICANT WEATHER AND/OR OBSTRUCTIONS TO VISIBILITY.

KYZ001>023-026-027-061>063-070>075-241200-
WESTERN AND SOUTH CENTRAL KENTUCKY

CITY           SKY/WX    TMP DP  RH WIND       PRES   REMARKS
PADUCAH        CLEAR     63  55  75 S9G18     29.61S
HENDERSON      CLEAR     63  54  72 S15G22    29.62R
OWENSBORO      CLEAR     61  55  81 S15       29.65S
HOPKINSVILLE   CLEAR     64  56  76 S10G18    29.67F
BOWLING GREEN  MOCLDY    63  55  75 S13       29.72S
GLASGOW        CLEAR     58  53  81 S5        29.74S
$$

KYZ024-025-028>034-038-045-046-053-241200-
NORTH CENTRAL KENTUCKY

CITY           SKY/WX    TMP DP  RH WIND       PRES   REMARKS
LOUISVILLE/SDF PTCLDY    60  53  77 S9        29.70S
LOUISVILLE/LOU PTCLDY    62  53  72 S6        29.70F
FORT KNOX      PTCLDY    60  55  84 S12       29.69S
$$

KYZ035>037-039>044-047>052-055>060-089>105-241200-
NORTHEAST KENTUCKY

CITY           SKY/WX    TMP DP  RH WIND       PRES   REMARKS
LEXINGTON      CLEAR     59  51  75 S12       29.76S
COVINGTON      PTCLDY    59  53  80 S14       29.70R
FRANKFORT      CLEAR     59  50  72 S7        29.73R
$$

KYZ054-064>069-076>088-106>120-241200-
SOUTHEAST KENTUCKY

CITY           SKY/WX    TMP DP  RH WIND       PRES   REMARKS
JACKSON        CLEAR     56  49  77 S3        29.82R
LONDON         CLEAR     57  47  69 S5        29.81S
SOMERSET       CLEAR     59  46  63 S3        29.81R
MIDDLESBORO    CLEAR     45  45 100 CALM      29.86R
MONTICELLO     SUNNY     62  51  67 S9G16     29.81R
$$




USA.gov is the U.S. government's official web portal to all federal, state and local government web resources and services.